Weather in Doolan

Uzbekistan     40°37′53″N   72°24′38″E
temp.,
°C
wind,
m/s
gust,
m/s
humid.,
%
clouds,
%
prec.,
mm/h
press.,
hPa
HPBL,
m
17 october, sun
sun1723:00+14ese22287 0.0 101811
02:00+12ese22315 0.0 101812
05:00+11ese22345 0.0 101812
08:00+14e22303 0.0 1018102
11:00+21wnw21195 0.0 1016692
14:00+23w321591 0.0 10141064
17:00+19w221999 0.0 101411
20:00+16se1122100 0.0 101511
18 october, mon
mon1823:00+15ese2225100 0.0 101512
02:00+13se1129100 0.0 101410
05:00+12sse1131100 0.0 101411
08:00+15sse1127100 0.0 101561
11:00+20w221999 0.0 1013674
14:00+22w2216100 0.0 1011932
17:00+19wsw1120100 0.0 101111
20:00+17ese1123100 0.0 101311
19 october, tue
tue1923:00+15e222779 0.0 101312
02:00+13ese2230100 0.0 101312
05:00+12e223312 0.0 101411
08:00+15ese112944 0.0 101577
11:00+22w211935 0.0 1014680
14:00+24w321520 0.0 1012964
17:00+20wnw111877 0.0 101211
20:00+17se112247 0.0 101411
20 october, wed
wed2023:00+16ese2224100 0.0 101511
02:00+15e322891 0.0 101518
05:00+14e3332100 0.0 101525
08:00+16s1129100 0.0 101750
11:00+21e3321100 0.0 1015449
14:00+24ene3317100 0.0 1013877
17:00+21ene1120100 0.0 101411
20:00+19ese3423100 0.0 101442
21 october, thu
thu2123:00+18ene3427100 0.0 101459
02:00+16e333096 0.0 101423
05:00+15ese3334100 0.0 101432
08:00+17e2234100 0.0 101483
11:00+22wsw2123100 0.0 1013581
14:00+25w442192 0.0 10121245
17:00+22sw2225100 0.0 101228
20:00+20nw3628100 0.0 1014122